• In Uzbekistan
  • List of Countries
  • For 7 days
  • Water Temperature
  • Satellite Maps
  • Weather Map
  • Weather Widgets
  • user-avatar
    Login

    Hourly Weather Ballycastle

    Today, 18 October, Wednesday

    Time Temperature Precipitation Wind Pressure Humidity
    00:00 +7°C° 0 mm 0 mps 757 mmHg 94%
    01:00 +8°C° 0 mm 1 mps 757 mmHg 94%
    02:00 +8°C° 0 mm 1 mps 757 mmHg 94%
    03:00 +8°C° 0 mm 1 mps 756 mmHg 94%
    04:00 +8°C° 0 mm 1 mps 756 mmHg 94%
    05:00 +7°C° 0 mm 2 mps 756 mmHg 94%
    06:00 +7°C° 0 mm 3 mps 755 mmHg 95%
    07:00 +8°C° 0 mm 3 mps 755 mmHg 94%
    08:00 +8°C° 0 mm 4 mps 755 mmHg 93%
    09:00 +8°C° 0 mm 4 mps 755 mmHg 92%
    10:00 +9°C° 0 mm 5 mps 755 mmHg 89%
    11:00 +10°C° 0 mm 5 mps 755 mmHg 86%
    12:00 +12°C° 0 mm 5 mps 755 mmHg 84%
    13:00 +11°C° 0 mm 6 mps 754 mmHg 82%
    14:00 +11°C° 0 mm 6 mps 753 mmHg 81%
    15:00 +11°C° 0 mm 6 mps 753 mmHg 80%
    16:00 +10°C° 0 mm 7 mps 752 mmHg 82%
    17:00 +10°C° 0 mm 7 mps 752 mmHg 84%
    18:00 +9°C° 0 mm 7 mps 752 mmHg 86%
    19:00 +10°C° 0.3 mm 7 mps 751 mmHg 88%
    20:00 +10°C° 0.3 mm 7 mps 751 mmHg 90%
    21:00 +10°C° 0.3 mm 7 mps 751 mmHg 92%
    22:00 +10°C° 0.4 mm 8 mps 750 mmHg 93%
    23:00 +11°C° 0.4 mm 8 mps 750 mmHg 93%

    Tomorrow, 19 October, Thursday

    Time Temperature Precipitation Wind Pressure Humidity
    00:00 +11°C° 0.4 mm 8 mps 749 mmHg 94%
    01:00 +11°C° 0.1 mm 7 mps 749 mmHg 94%
    02:00 +11°C° 0.1 mm 7 mps 748 mmHg 94%
    03:00 +11°C° 0.1 mm 7 mps 748 mmHg 95%
    04:00 +11°C° 0 mm 7 mps 747 mmHg 94%
    05:00 +11°C° 0 mm 7 mps 747 mmHg 93%
    06:00 +11°C° 0 mm 7 mps 747 mmHg 92%
    07:00 +11°C° 0 mm 7 mps 747 mmHg 92%
    08:00 +11°C° 0 mm 7 mps 746 mmHg 92%
    09:00 +12°C° 0 mm 7 mps 746 mmHg 91%
    10:00 +12°C° 0.1 mm 7 mps 746 mmHg 90%
    11:00 +12°C° 0.1 mm 7 mps 746 mmHg 88%
    12:00 +14°C° 0.1 mm 7 mps 746 mmHg 87%
    13:00 +14°C° 0.2 mm 7 mps 745 mmHg 88%
    14:00 +12°C° 0.2 mm 7 mps 745 mmHg 89%
    15:00 +12°C° 0.2 mm 7 mps 744 mmHg 90%
    16:00 +13°C° 0.1 mm 6 mps 744 mmHg 91%
    17:00 +13°C° 0.1 mm 6 mps 744 mmHg 92%
    18:00 +13°C° 0.1 mm 6 mps 744 mmHg 93%
    19:00 +13°C° 0.4 mm 6 mps 744 mmHg 94%
    20:00 +13°C° 0.4 mm 5 mps 744 mmHg 94%
    21:00 +13°C° 0.4 mm 5 mps 744 mmHg 95%
    22:00 +12°C° 0.5 mm 4 mps 744 mmHg 95%
    23:00 +12°C° 0.5 mm 4 mps 744 mmHg 96%

    Day after tomorrow, 20 October, Friday

    Time Temperature Precipitation Wind Pressure Humidity
    00:00 +12°C° 0.5 mm 3 mps 744 mmHg 97%
    01:00 +12°C° 1 mm 4 mps 744 mmHg 96%
    02:00 +11°C° 1 mm 4 mps 744 mmHg 95%
    03:00 +11°C° 1 mm 4 mps 744 mmHg 95%
    04:00 +10°C° 0.4 mm 5 mps 744 mmHg 94%
    05:00 +9°C° 0.4 mm 5 mps 745 mmHg 93%
    06:00 +9°C° 0.4 mm 6 mps 745 mmHg 92%
    07:00 +9°C° 0.1 mm 6 mps 745 mmHg 91%
    08:00 +9°C° 0.1 mm 6 mps 746 mmHg 89%
    09:00 +9°C° 0.1 mm 7 mps 746 mmHg 88%
    10:00 +10°C° 0 mm 5 mps 746 mmHg 85%
    11:00 +11°C° 0 mm 4 mps 746 mmHg 82%
    12:00 +12°C° 0 mm 3 mps 746 mmHg 78%
    13:00 +12°C° 0 mm 3 mps 746 mmHg 79%
    14:00 +12°C° 0 mm 2 mps 746 mmHg 79%
    15:00 +12°C° 0 mm 2 mps 745 mmHg 79%
    16:00 +11°C° 0 mm 3 mps 745 mmHg 81%
    17:00 +9°C° 0 mm 5 mps 744 mmHg 84%
    18:00 +9°C° 0 mm 6 mps 744 mmHg 86%
    19:00 +9°C° 0.2 mm 7 mps 743 mmHg 87%
    20:00 +9°C° 0.2 mm 8 mps 742 mmHg 87%
    21:00 +8°C° 0.2 mm 9 mps 742 mmHg 88%
    22:00 +10°C° 0.7 mm 9 mps 741 mmHg 89%
    23:00 +9°C° 0.7 mm 10 mps 740 mmHg 91%

    21 October, Saturday

    Time Temperature Precipitation Wind Pressure Humidity
    00:00 +11°C° 0.7 mm 10 mps 739 mmHg 92%
    01:00 +10°C° 0.3 mm 9 mps 739 mmHg 92%
    02:00 +10°C° 0.3 mm 8 mps 738 mmHg 92%
    03:00 +10°C° 0.3 mm 7 mps 737 mmHg 92%
    04:00 +9°C° 0.3 mm 7 mps 737 mmHg 91%
    05:00 +9°C° 0.3 mm 7 mps 736 mmHg 90%
    06:00 +9°C° 0.3 mm 7 mps 736 mmHg 89%
    07:00 +9°C° 0.5 mm 7 mps 735 mmHg 90%
    08:00 +10°C° 0.5 mm 7 mps 735 mmHg 90%
    09:00 +10°C° 0.5 mm 7 mps 735 mmHg 90%
    10:00 +10°C° 0.5 mm 6 mps 735 mmHg 90%
    11:00 +10°C° 0.5 mm 5 mps 735 mmHg 90%
    12:00 +10°C° 0.5 mm 5 mps 735 mmHg 90%
    13:00 +10°C° 0.3 mm 5 mps 735 mmHg 90%
    14:00 +10°C° 0.3 mm 6 mps 736 mmHg 89%
    15:00 +10°C° 0.3 mm 7 mps 737 mmHg 89%
    16:00 +10°C° 0.2 mm 8 mps 738 mmHg 89%
    17:00 +9°C° 0.2 mm 10 mps 739 mmHg 89%
    18:00 +8°C° 0.2 mm 12 mps 741 mmHg 89%
    19:00 +8°C° 0.2 mm 12 mps 742 mmHg 86%
    20:00 +8°C° 0.2 mm 12 mps 743 mmHg 84%
    21:00 +7°C° 0.2 mm 13 mps 745 mmHg 82%
    22:00 +7°C° 0.1 mm 13 mps 746 mmHg 80%
    23:00 +7°C° 0.1 mm 13 mps 747 mmHg 78%

    22 October, Sunday

    Time Temperature Precipitation Wind Pressure Humidity
    00:00 +5°C° 0.1 mm 13 mps 748 mmHg 76%
    01:00 +5°C° 0.1 mm 12 mps 748 mmHg 76%
    02:00 +5°C° 0.1 mm 12 mps 749 mmHg 75%
    03:00 +5°C° 0.1 mm 12 mps 750 mmHg 75%
    04:00 +6°C° 0.1 mm 11 mps 750 mmHg 74%
    05:00 +6°C° 0.1 mm 11 mps 750 mmHg 74%
    06:00 +6°C° 0.1 mm 11 mps 751 mmHg 73%
    07:00 +6°C° 0 mm 10 mps 751 mmHg 74%
    08:00 +6°C° 0 mm 10 mps 752 mmHg 74%
    09:00 +7°C° 0 mm 9 mps 752 mmHg 75%
    10:00 +7°C° 0.1 mm 9 mps 753 mmHg 73%
    11:00 +8°C° 0.1 mm 9 mps 754 mmHg 71%
    12:00 +8°C° 0.1 mm 9 mps 754 mmHg 70%
    13:00 +10°C° 0 mm 9 mps 754 mmHg 71%
    14:00 +10°C° 0 mm 8 mps 754 mmHg 72%
    15:00 +10°C° 0 mm 7 mps 754 mmHg 73%
    16:00 +9°C° 0 mm 7 mps 754 mmHg 76%
    17:00 +9°C° 0 mm 7 mps 754 mmHg 79%
    18:00 +8°C° 0 mm 7 mps 753 mmHg 83%
    19:00 +9°C° 0.6 mm 8 mps 753 mmHg 85%
    20:00 +8°C° 0.6 mm 9 mps 752 mmHg 87%
    21:00 +10°C° 0.6 mm 9 mps 751 mmHg 89%
    22:00 +10°C° 0.8 mm 9 mps 750 mmHg 90%
    23:00 +11°C° 0.8 mm 10 mps 749 mmHg 91%

    23 October, Monday

    Time Temperature Precipitation Wind Pressure Humidity
    00:00 +12°C° 0.8 mm 10 mps 749 mmHg 92%
    01:00 +12°C° 1.2 mm 8 mps 748 mmHg 93%
    02:00 +12°C° 1.2 mm 7 mps 748 mmHg 94%
    03:00 +13°C° 1.2 mm 6 mps 747 mmHg 95%
    04:00 +14°C° 0.6 mm 6 mps 747 mmHg 94%
    05:00 +14°C° 0.6 mm 6 mps 747 mmHg 94%
    06:00 +14°C° 0.6 mm 5 mps 746 mmHg 93%
    07:00 +14°C° 0.1 mm 6 mps 746 mmHg 92%
    08:00 +14°C° 0.1 mm 7 mps 747 mmHg 90%
    09:00 +14°C° 0.1 mm 7 mps 747 mmHg 88%
    10:00 +14°C° 0 mm 7 mps 747 mmHg 86%
    11:00 +14°C° 0 mm 7 mps 747 mmHg 84%
    12:00 +15°C° 0 mm 7 mps 748 mmHg 82%
    13:00 +14°C° 0.1 mm 6 mps 748 mmHg 83%
    14:00 +14°C° 0.1 mm 6 mps 748 mmHg 84%
    15:00 +14°C° 0.1 mm 6 mps 748 mmHg 86%
    16:00 +13°C° 0.3 mm 6 mps 748 mmHg 86%
    17:00 +12°C° 0.3 mm 7 mps 749 mmHg 86%
    18:00 +11°C° 0.3 mm 7 mps 749 mmHg 87%
    19:00 +11°C° 0 mm 7 mps 749 mmHg 87%
    20:00 +11°C° 0 mm 6 mps 750 mmHg 88%
    21:00 +11°C° 0 mm 6 mps 750 mmHg 88%
    22:00 +12°C° 0.1 mm 5 mps 750 mmHg 90%
    23:00 +12°C° 0.1 mm 5 mps 750 mmHg 91%
    Show more